Middletown, OH

10:47 PM EST on December 16, 2017 (GMT -0500)
Hook Field Municipal

Weather History for KMWO - August, 2013

Change the Weather History Date:

Thursday, August 8, 2013

  Actual Average (KFFO) Record (KFFO)
Temperature  
Mean Temperature 74 °F -  
Max Temperature 82 °F 81 °F 99 °F (2007)
Min Temperature 67 °F 61 °F 55 °F (2002)
Cooling Degree Days 10    
Growing Degree Days 24 (Base 50)    
Moisture  
Dew Point 73 °F    
Average Humidity 97    
Maximum Humidity 100    
Minimum Humidity 82    
Precipitation  
Precipitation 0.00 in - - ()
Sea Level Pressure  
Sea Level Pressure 29.95 in    
Wind  
Wind Speed 2 mph (SW)    
Max Wind Speed 12 mph    
Max Gust Speed -    
Visibility 6 miles    
Events Fog , Rain    
Averages and records for this station are not official NWS values.
T = Trace of Precipitation, MM = Missing Value Source: NWS Daily Summary

Daily Weather History Graph

Daily Weather History Graph

Search for Another Location

Airport or City:

Trip Planner

Search our weather history database for the weather conditions in past years. The results will help you decide how hot, cold, wet, or windy it might be!

Date:

Astronomy

Aug. 08, 2013 Rise Set
Actual Time 6:43 AM EDT 8:41 PM EDT
Civil Twilight 6:14 AM EDT 9:11 PM EDT
Nautical Twilight 5:38 AM EDT 9:46 PM EDT
Astronomical Twilight 4:59 AM EDT 10:25 PM EDT
Moon 8:29 AM EDT (8/8) 9:20 PM EDT (8/8)
Length of Visible Light 14h 56m
Length of Day
13h 58m
Waxing Crescent, 3% of the Moon is Illuminated
Aug 8
Waxing Crescent
Aug 14
First Quarter
Aug 20
Full
Aug 28
Last Quarter
Sep 5
New

Hourly Weather History & Observations

Time (EDT) Temp. Heat Index Dew Point Humidity Pressure Visibility Wind Dir Wind Speed Gust Speed Precip Events Conditions
12:15 AM 72.7 °F - 72.7 °F 100% 29.95 in 3.0 mi Calm Calm - N/A   Scattered Clouds
12:35 AM 72.7 °F - 72.7 °F 100% 29.94 in 4.0 mi Calm Calm - N/A   Scattered Clouds
12:55 AM 72.7 °F - 72.7 °F 100% 29.95 in 4.0 mi NNW 4.6 mph - N/A   Mostly Cloudy
1:15 AM 72.7 °F - 72.7 °F 100% 29.95 in 4.0 mi Calm Calm - N/A   Mostly Cloudy
1:35 AM 72.7 °F - 72.7 °F 100% 29.95 in 4.0 mi Calm Calm - N/A   Mostly Cloudy
1:55 AM 72.7 °F - 72.7 °F 100% 29.95 in 4.0 mi Calm Calm - N/A   Light Drizzle
2:15 AM 72.7 °F - 72.7 °F 100% 29.95 in 3.0 mi Calm Calm - N/A   Mostly Cloudy
2:35 AM 72.7 °F - 72.7 °F 100% 29.95 in 5.0 mi Calm Calm - N/A   Overcast
2:55 AM 72.7 °F - 72.7 °F 100% 29.94 in 4.0 mi Calm Calm - N/A   Overcast
3:15 AM 72.7 °F - 72.7 °F 100% 29.94 in 4.0 mi WSW 4.6 mph - N/A   Mostly Cloudy
3:35 AM 72.7 °F - 72.7 °F 100% 29.95 in 3.0 mi Calm Calm - N/A   Scattered Clouds
3:55 AM 72.7 °F - 72.7 °F 100% 29.95 in 3.0 mi Calm Calm - N/A   Clear
4:15 AM 72.7 °F - 72.7 °F 100% 29.95 in 2.5 mi Calm Calm - N/A   Scattered Clouds
4:35 AM 71.2 °F - 71.2 °F 100% 29.95 in 2.0 mi Calm Calm - N/A   Mostly Cloudy
4:55 AM 71.1 °F - 71.1 °F 100% 29.94 in 2.0 mi Calm Calm - N/A   Scattered Clouds
5:15 AM 71.8 °F - 71.8 °F 100% 29.94 in 1.0 mi West 3.5 mph - N/A   Mist
5:35 AM 70.2 °F - 70.2 °F 100% 29.94 in 0.5 mi Calm Calm - N/A Fog Fog
5:55 AM 72.7 °F - 72.7 °F 100% 29.94 in 0.8 mi Calm Calm - N/A   Mist
6:15 AM 70.7 °F - 70.7 °F 100% 29.94 in 0.8 mi Calm Calm - N/A   Mist
6:35 AM 67.6 °F - 67.6 °F 100% 29.94 in 0.2 mi Calm Calm - N/A Fog Fog
6:55 AM 67.8 °F - 67.8 °F 100% 29.94 in 0.8 mi Calm Calm - N/A   Mist
7:15 AM 68.5 °F - 68.5 °F 100% 29.95 in 1.0 mi Calm Calm - N/A   Mostly Cloudy
7:35 AM 68.4 °F - 68.4 °F 100% 29.95 in 1.8 mi Calm Calm - N/A   Overcast
7:55 AM 72.7 °F - 72.7 °F 100% 29.95 in 2.0 mi Calm Calm - N/A   Overcast
8:15 AM 72.7 °F - 72.7 °F 100% 29.95 in 2.5 mi Calm Calm - N/A   Overcast
8:35 AM 72.7 °F - 72.7 °F 100% 29.95 in 3.0 mi South 4.6 mph - N/A   Overcast
8:55 AM 72.7 °F - 72.7 °F 100% 29.95 in 4.0 mi SSW 4.6 mph - N/A   Overcast
9:15 AM 72.7 °F - 72.7 °F 100% 29.95 in 4.0 mi SW 4.6 mph - N/A   Overcast
9:35 AM 75.2 °F - 75.2 °F 100% 29.96 in 5.0 mi South 3.5 mph - N/A   Overcast
9:55 AM 75.2 °F - 75.0 °F 99% 29.97 in 5.0 mi West 4.6 mph - N/A   Overcast
10:15 AM 77.2 °F - 76.3 °F 97% 29.98 in 5.0 mi SW 3.5 mph - N/A   Overcast
10:35 AM 75.2 °F - 74.5 °F 98% 29.98 in 7.0 mi Calm Calm - N/A   Overcast
10:55 AM 77.0 °F - 76.1 °F 97% 29.99 in 5.0 mi Calm Calm - N/A   Overcast
11:15 AM 77.9 °F - 76.6 °F 96% 29.99 in 5.0 mi SW 3.5 mph - N/A   Overcast
11:35 AM 77.9 °F - 76.1 °F 94% 29.98 in 7.0 mi WSW 4.6 mph - N/A   Overcast
11:55 AM 79.0 °F - 76.3 °F 91% 29.98 in 7.0 mi South 3.5 mph - N/A   Mostly Cloudy
12:15 PM 80.2 °F 86.0 °F 76.3 °F 88% 29.97 in 10.0 mi South 3.5 mph - N/A   Mostly Cloudy
12:35 PM 81.1 °F 87.6 °F 75.9 °F 84% 29.97 in 10.0 mi SW 5.8 mph - N/A   Mostly Cloudy
12:55 PM 81.3 °F 87.8 °F 75.7 °F 83% 29.96 in 7.0 mi SW 4.6 mph - N/A   Scattered Clouds
1:15 PM 80.8 °F 87.1 °F 76.3 °F 86% 29.95 in 7.0 mi West 3.5 mph - N/A   Scattered Clouds
1:35 PM 80.6 °F 86.6 °F 76.1 °F 86% 29.95 in 7.0 mi WSW 6.9 mph - N/A   Scattered Clouds
1:55 PM 82.6 °F 91.1 °F 77.0 °F 83% 29.95 in 10.0 mi West 5.8 mph - N/A   Clear
2:15 PM 81.3 °F 87.8 °F 75.6 °F 83% 29.94 in 10.0 mi NW 4.6 mph - N/A   Scattered Clouds
2:35 PM 80.6 °F 86.8 °F 76.5 °F 87% 29.94 in 10.0 mi North 8.1 mph - N/A   Overcast
2:55 PM 82.9 °F 91.8 °F 77.0 °F 82% 29.93 in 10.0 mi NNE 5.8 mph - N/A   Scattered Clouds
3:15 PM 81.9 °F 88.9 °F 75.7 °F 82% 29.93 in 10.0 mi ENE 6.9 mph - N/A   Scattered Clouds
3:35 PM 79.9 °F - 75.6 °F 87% 29.94 in 10.0 mi ESE 9.2 mph - N/A   Mostly Cloudy
3:55 PM 77.9 °F - 75.2 °F 91% 29.94 in 10.0 mi ESE 6.9 mph - N/A   Overcast
4:15 PM 77.9 °F - 75.0 °F 91% 29.94 in 10.0 mi East 8.1 mph - N/A   Overcast
4:35 PM 77.9 °F - 75.2 °F 91% 29.93 in 10.0 mi NE 4.6 mph - N/A   Overcast
4:55 PM 75.2 °F - 75.2 °F 100% 29.93 in 1.0 mi SSE 3.5 mph - N/A Rain Heavy Rain
5:15 PM 73.4 °F - 73.2 °F 99% 29.93 in 0.8 mi SE 10.4 mph - N/A Rain Heavy Rain
5:35 PM 75.2 °F - 75.2 °F 100% 29.92 in 2.5 mi Calm Calm - N/A Rain Rain
5:55 PM 75.2 °F - 75.2 °F 100% 29.95 in 5.0 mi WSW 11.5 mph - N/A Rain Heavy Rain
6:15 PM 72.7 °F - 72.7 °F 100% 29.95 in 2.5 mi NNW 6.9 mph - N/A Rain Heavy Rain
6:35 PM 72.7 °F - 72.7 °F 100% 29.95 in 10.0 mi NE 5.8 mph - N/A   Overcast
6:55 PM 75.2 °F - 75.2 °F 100% 29.95 in 10.0 mi East 5.8 mph - N/A   Overcast
7:15 PM 72.7 °F - 72.7 °F 100% 29.94 in 10.0 mi ENE 5.8 mph - N/A   Scattered Clouds
7:35 PM 72.9 °F - 72.9 °F 100% 29.93 in 10.0 mi NE 3.5 mph - N/A   Clear
7:55 PM 75.0 °F - 75.0 °F 100% 29.93 in 10.0 mi NNE 3.5 mph - N/A   Light Drizzle
8:15 PM 72.9 °F - 72.9 °F 100% 29.93 in 7.0 mi Calm Calm - N/A Rain Rain
8:35 PM 72.7 °F - 72.7 °F 100% 29.93 in 10.0 mi Calm Calm - N/A   Clear
8:55 PM 72.7 °F - 72.7 °F 100% 29.93 in 10.0 mi Calm Calm - N/A   Clear
9:15 PM 72.7 °F - 72.7 °F 100% 29.93 in 7.0 mi Calm Calm - N/A   Scattered Clouds
9:35 PM 72.7 °F - 72.7 °F 100% 29.95 in 7.0 mi Calm Calm - N/A   Mostly Cloudy
9:55 PM 72.7 °F - 72.7 °F 100% 29.95 in 7.0 mi Calm Calm - N/A   Overcast
10:15 PM 72.7 °F - 72.7 °F 100% 29.95 in 7.0 mi Calm Calm - N/A   Mostly Cloudy
10:35 PM 72.7 °F - 72.7 °F 100% 29.96 in 7.0 mi Calm Calm - N/A Rain Light Rain
10:55 PM 72.7 °F - 72.7 °F 100% 29.96 in 7.0 mi Calm Calm - N/A Rain Light Rain
11:15 PM 72.7 °F - 72.7 °F 100% 29.96 in 5.0 mi Calm Calm - N/A Rain Rain
11:35 PM 72.7 °F - 72.7 °F 100% 29.96 in 4.0 mi Calm Calm - N/A Rain Rain
11:55 PM 72.7 °F - 72.7 °F 100% 29.95 in 3.0 mi Calm Calm - N/A Rain Rain